| time (UTC) | temp F | wind direction | speed MPH | gust MPH | rain 1hr in | rain 24hr in | rain mn in | humidity % | barometer mb |
| 20260831212527 | 80 | 0 | 0.0 | 1.0 | 0.00 | 0.10 | 0.01 | 68 | 1017.8 |
| 20260831212031 | 80 | 0 | 0.0 | 1.0 | 0.00 | 0.10 | 0.01 | 67 | 1017.8 |
| 20260831211604 | 80 | 0 | 0.0 | 1.0 | 0.00 | 0.10 | 0.01 | 67 | 1017.7 |
| 20260831211027 | 80 | 293 | 0.0 | 1.0 | 0.00 | 0.10 | 0.01 | 66 | 1017.8 |
| 20260831210524 | 80 | 296 | 0.0 | 3.0 | 0.00 | 0.10 | 0.01 | 67 | 1017.8 |
| 20260831210052 | 80 | 0 | 0.0 | 3.0 | 0.00 | 0.10 | 0.01 | 67 | 1017.8 |
| 20260831205525 | 80 | 346 | 0.0 | 2.0 | 0.00 | 0.10 | 0.01 | 66 | 1017.8 |
| 20260831205024 | 81 | 0 | 0.0 | 1.0 | 0.00 | 0.10 | 0.01 | 66 | 1017.7 |
| 20260831204545 | 80 | 0 | 0.0 | 1.0 | 0.00 | 0.10 | 0.01 | 67 | 1017.8 |
| 20260831204025 | 80 | 291 | 0.0 | 1.0 | 0.00 | 0.10 | 0.01 | 66 | 1017.8 |
| 20260831203526 | 80 | 0 | 0.0 | 1.0 | 0.00 | 0.10 | 0.01 | 67 | 1017.8 |
| 20260831203046 | 79 | 338 | 0.0 | 1.0 | 0.00 | 0.10 | 0.01 | 70 | 1017.8 |
| 20260831202527 | 79 | 0 | 0.0 | 1.0 | 0.00 | 0.10 | 0.01 | 72 | 1018.0 |
| 20260831202027 | 79 | 0 | 0.0 | 1.0 | 0.00 | 0.10 | 0.01 | 71 | 1018.1 |
| 20260831201556 | 80 | 333 | 0.0 | 1.0 | 0.00 | 0.10 | 0.01 | 69 | 1018.0 |
| 20260831201026 | 80 | 333 | 0.0 | 1.0 | 0.00 | 0.10 | 0.01 | 68 | 1018.0 |
| 20260831200524 | 80 | 0 | 0.0 | 1.0 | 0.00 | 0.10 | 0.01 | 69 | 1018.0 |
| 20260831200047 | 80 | 0 | 0.0 | 1.0 | 0.00 | 0.10 | 0.01 | 68 | 1017.9 |
| 20260831195524 | 80 | 31 | 0.0 | 2.0 | 0.00 | 0.10 | 0.01 | 67 | 1018.0 |
| 20260831195027 | 79 | 0 | 0.0 | 2.0 | 0.00 | 0.10 | 0.01 | 69 | 1018.2 |
| 20260831194555 | 79 | 346 | 1.0 | 2.0 | 0.00 | 0.10 | 0.01 | 69 | 1018.2 |
| 20260831194028 | 79 | 0 | 0.0 | 2.0 | 0.00 | 0.10 | 0.01 | 70 | 1018.4 |
| 20260831193527 | 79 | 323 | 0.0 | 2.0 | 0.00 | 0.10 | 0.01 | 69 | 1018.5 |
| 20260831193058 | 79 | 288 | 0.0 | 2.0 | 0.00 | 0.10 | 0.01 | 70 | 1018.6 |
| 20260831192526 | 79 | 295 | 0.0 | 2.0 | 0.00 | 0.10 | 0.01 | 70 | 1018.7 |
| 20260831192027 | 80 | 278 | 0.0 | 2.0 | 0.00 | 0.10 | 0.01 | 70 | 1018.7 |
| 20260831191550 | 80 | 298 | 0.0 | 2.0 | 0.00 | 0.10 | 0.01 | 70 | 1018.7 |
| 20260831191027 | 79 | 294 | 0.0 | 2.0 | 0.00 | 0.10 | 0.01 | 69 | 1018.7 |
| 20260831190524 | 79 | 273 | 0.0 | 1.0 | 0.00 | 0.10 | 0.01 | 70 | 1018.7 |
| 20260831190051 | 80 | 271 | 0.0 | 1.0 | 0.00 | 0.10 | 0.01 | 70 | 1018.8 |
| 20260831185525 | 80 | 0 | 0.0 | 2.0 | 0.00 | 0.10 | 0.01 | 70 | 1018.8 |
| 20260831185024 | 80 | 0 | 1.0 | 3.0 | 0.00 | 0.10 | 0.01 | 69 | 1018.8 |
| 20260831184549 | 80 | 269 | 1.0 | 3.0 | 0.00 | 0.10 | 0.01 | 68 | 1018.6 |
| 20260831184024 | 80 | 278 | 0.0 | 2.0 | 0.00 | 0.10 | 0.01 | 66 | 1018.7 |
| 20260831183527 | 81 | 309 | 0.0 | 2.0 | 0.00 | 0.10 | 0.01 | 66 | 1018.7 |
| 20260831183052 | 81 | 273 | 0.0 | 2.0 | 0.00 | 0.10 | 0.01 | 65 | 1018.6 |
| 20260831182528 | 81 | 284 | 0.0 | 1.0 | 0.00 | 0.10 | 0.01 | 65 | 1018.6 |
| 20260831182029 | 81 | 300 | 0.0 | 1.0 | 0.00 | 0.10 | 0.01 | 65 | 1018.7 |
| 20260831181551 | 81 | 0 | 0.0 | 3.0 | 0.00 | 0.10 | 0.01 | 63 | 1018.7 |
| 20260831181029 | 81 | 0 | 1.0 | 6.0 | 0.00 | 0.10 | 0.01 | 63 | 1018.8 |
| 20260831180531 | 81 | 134 | 0.0 | 6.0 | 0.00 | 0.10 | 0.01 | 63 | 1018.8 |
| 20260831180049 | 82 | 266 | 2.0 | 6.0 | 0.00 | 0.10 | 0.01 | 62 | 1018.9 |
| 20260831175529 | 82 | 0 | 1.0 | 4.0 | 0.00 | 0.10 | 0.01 | 63 | 1018.8 |
| 20260831175030 | 82 | 78 | 1.0 | 4.0 | 0.00 | 0.10 | 0.01 | 61 | 1018.9 |
| 20260831174552 | 81 | 153 | 1.0 | 2.0 | 0.00 | 0.10 | 0.01 | 65 | 1018.9 |
| 20260831174027 | 81 | 0 | 0.0 | 1.0 | 0.00 | 0.10 | 0.01 | 66 | 1019.0 |
| 20260831173530 | 81 | 242 | 0.0 | 2.0 | 0.00 | 0.10 | 0.01 | 65 | 1018.9 |
| 20260831173048 | 80 | 0 | 0.0 | 3.0 | 0.00 | 0.10 | 0.01 | 66 | 1019.0 |
| 20260831172529 | 80 | 247 | 1.0 | 4.0 | 0.00 | 0.10 | 0.01 | 65 | 1018.8 |
| 20260831172032 | 81 | 275 | 1.0 | 4.0 | 0.00 | 0.10 | 0.01 | 65 | 1018.9 |
| 20260831171547 | 81 | 205 | 2.0 | 4.0 | 0.00 | 0.10 | 0.01 | 65 | 1019.1 |
| 20260831171030 | 81 | 217 | 1.0 | 4.0 | 0.00 | 0.10 | 0.01 | 65 | 1019.0 |
| 20260831170530 | 81 | 267 | 1.0 | 4.0 | 0.00 | 0.10 | 0.01 | 64 | 1019.2 |
| 20260831170104 | 80 | 0 | 1.0 | 3.0 | 0.00 | 0.10 | 0.01 | 66 | 1019.1 |
| 20260831165529 | 80 | 88 | 1.0 | 3.0 | 0.00 | 0.10 | 0.01 | 66 | 1019.2 |
| 20260831165030 | 80 | 40 | 0.0 | 5.0 | 0.00 | 0.10 | 0.01 | 65 | 1019.3 |
| 20260831164554 | 80 | 91 | 1.0 | 5.0 | 0.00 | 0.10 | 0.01 | 67 | 1019.4 |
| 20260831164028 | 80 | 46 | 0.0 | 4.0 | 0.00 | 0.10 | 0.01 | 66 | 1019.3 |
| 20260831163530 | 80 | 146 | 1.0 | 4.0 | 0.00 | 0.10 | 0.01 | 67 | 1019.2 |
| 20260831163048 | 80 | 244 | 1.0 | 4.0 | 0.00 | 0.10 | 0.01 | 66 | 1019.2 |
| 20260831162532 | 80 | 71 | 2.0 | 3.0 | 0.00 | 0.10 | 0.01 | 67 | 1019.2 |
| 20260831162027 | 79 | 260 | 1.0 | 3.0 | 0.00 | 0.10 | 0.01 | 64 | 1019.2 |
| 20260831161600 | 79 | 261 | 1.0 | 3.0 | 0.00 | 0.10 | 0.01 | 65 | 1019.2 |
| 20260831161028 | 79 | 125 | 0.0 | 3.0 | 0.00 | 0.10 | 0.01 | 65 | 1019.3 |
| 20260831160528 | 79 | 111 | 2.0 | 4.0 | 0.00 | 0.10 | 0.01 | 67 | 1019.3 |
| 20260831160054 | 79 | 116 | 2.0 | 7.0 | 0.00 | 0.10 | 0.01 | 70 | 1019.3 |
| 20260831155531 | 78 | 156 | 0.0 | 7.0 | 0.00 | 0.10 | 0.01 | 71 | 1019.1 |
| 20260831155033 | 78 | 80 | 1.0 | 4.0 | 0.00 | 0.10 | 0.01 | 70 | 1019.1 |
| 20260831154623 | 78 | 138 | 1.0 | 4.0 | 0.00 | 0.10 | 0.01 | 71 | 1019.2 |
| 20260831154029 | 78 | 0 | 0.0 | 4.0 | 0.00 | 0.10 | 0.01 | 72 | 1019.2 |
| 20260831153529 | 77 | 0 | 2.0 | 4.0 | 0.00 | 0.10 | 0.01 | 69 | 1019.2 |
| 20260831153052 | 77 | 141 | 1.0 | 4.0 | 0.00 | 0.10 | 0.01 | 71 | 1019.3 |
| 20260831152529 | 78 | 0 | 1.0 | 5.0 | 0.00 | 0.10 | 0.01 | 71 | 1019.3 |
| 20260831152027 | 78 | 44 | 1.0 | 5.0 | 0.00 | 0.10 | 0.01 | 71 | 1019.4 |
| 20260831151605 | 77 | 166 | 1.0 | 5.0 | 0.00 | 0.10 | 0.01 | 72 | 1019.4 |
| 20260831151029 | 77 | 115 | 0.0 | 2.0 | 0.00 | 0.10 | 0.01 | 74 | 1019.4 |
| 20260831150529 | 76 | 99 | 1.0 | 4.0 | 0.00 | 0.10 | 0.01 | 75 | 1019.5 |
| 20260831150049 | 75 | 43 | 1.0 | 6.0 | 0.00 | 0.10 | 0.01 | 78 | 1019.4 |
| 20260831145528 | 75 | 137 | 1.0 | 6.0 | 0.00 | 0.10 | 0.01 | 77 | 1019.4 |
| 20260831145032 | 75 | 105 | 0.0 | 3.0 | 0.00 | 0.10 | 0.01 | 77 | 1019.5 |
| 20260831144554 | 75 | 0 | 1.0 | 3.0 | 0.00 | 0.10 | 0.01 | 78 | 1019.4 |
| 20260831144030 | 75 | 42 | 1.0 | 4.0 | 0.00 | 0.10 | 0.01 | 78 | 1019.5 |
| 20260831143528 | 74 | 261 | 1.0 | 4.0 | 0.00 | 0.10 | 0.01 | 79 | 1019.4 |
| 20260831143047 | 74 | 123 | 1.0 | 6.0 | 0.00 | 0.10 | 0.01 | 78 | 1019.5 |
| 20260831142525 | 74 | 145 | 2.0 | 6.0 | 0.00 | 0.10 | 0.01 | 79 | 1019.5 |
| 20260831142028 | 74 | 117 | 2.0 | 6.0 | 0.00 | 0.10 | 0.01 | 78 | 1019.5 |
| 20260831141549 | 74 | 0 | 0.0 | 3.0 | 0.00 | 0.10 | 0.01 | 80 | 1019.5 |
| 20260831141026 | 74 | 97 | 0.0 | 2.0 | 0.00 | 0.10 | 0.01 | 80 | 1019.5 |
| 20260831140528 | 74 | 84 | 0.0 | 3.0 | 0.00 | 0.10 | 0.01 | 81 | 1019.4 |
| 20260831140046 | 73 | 0 | 0.0 | 3.0 | 0.00 | 0.10 | 0.01 | 83 | 1019.4 |
| 20260831135529 | 73 | 135 | 1.0 | 3.0 | 0.00 | 0.10 | 0.01 | 82 | 1019.4 |
| 20260831135028 | 73 | 85 | 1.0 | 3.0 | 0.00 | 0.10 | 0.01 | 82 | 1019.4 |
| 20260831134555 | 73 | 104 | 0.0 | 4.0 | 0.00 | 0.10 | 0.01 | 84 | 1019.4 |
| 20260831134028 | 73 | 0 | 2.0 | 4.0 | 0.00 | 0.10 | 0.01 | 82 | 1019.4 |
| 20260831133525 | 73 | 108 | 0.0 | 4.0 | 0.00 | 0.10 | 0.01 | 83 | 1019.4 |
| 20260831133045 | 73 | 0 | 1.0 | 4.0 | 0.00 | 0.10 | 0.01 | 83 | 1019.5 |
| 20260831132526 | 73 | 116 | 0.0 | 3.0 | 0.00 | 0.10 | 0.01 | 84 | 1019.4 |
| 20260831132027 | 72 | 95 | 1.0 | 3.0 | 0.00 | 0.10 | 0.01 | 85 | 1019.4 |
| 20260831131607 | 72 | 49 | 1.0 | 3.0 | 0.00 | 0.10 | 0.01 | 86 | 1019.4 |
| 20260831131027 | 72 | 46 | 0.0 | 1.0 | 0.00 | 0.10 | 0.01 | 89 | 1019.5 |
| 20260831130527 | 72 | 0 | 0.0 | 1.0 | 0.00 | 0.10 | 0.01 | 89 | 1019.4 |
| 20260831130106 | 72 | 0 | 0.0 | 2.0 | 0.00 | 0.10 | 0.01 | 90 | 1019.4 |
| 20260831125525 | 72 | 0 | 0.0 | 2.0 | 0.00 | 0.10 | 0.01 | 91 | 1019.4 |
| 20260831125029 | 71 | 119 | 1.0 | 2.0 | 0.00 | 0.10 | 0.01 | 90 | 1019.3 |
| 20260831124550 | 71 | 115 | 0.0 | 2.0 | 0.00 | 0.10 | 0.01 | 92 | 1019.4 |
| 20260831124023 | 71 | 38 | 0.0 | 2.0 | 0.00 | 0.10 | 0.01 | 92 | 1019.5 |
| 20260831123524 | 71 | 108 | 0.0 | 1.0 | 0.00 | 0.10 | 0.01 | 92 | 1019.4 |
| 20260831123050 | 71 | 0 | 0.0 | 1.0 | 0.00 | 0.10 | 0.01 | 93 | 1019.4 |
| 20260831122528 | 71 | 0 | 0.0 | 1.0 | 0.00 | 0.10 | 0.01 | 93 | 1019.3 |
| 20260831122026 | 70 | 0 | 0.0 | 2.0 | 0.00 | 0.10 | 0.01 | 94 | 1019.3 |
| 20260831121550 | 70 | 125 | 1.0 | 2.0 | 0.00 | 0.10 | 0.01 | 94 | 1019.3 |
| 20260831121032 | 70 | 0 | 0.0 | 1.0 | 0.00 | 0.10 | 0.01 | 94 | 1019.3 |
| 20260831120528 | 70 | 0 | 0.0 | 1.0 | 0.00 | 0.10 | 0.01 | 95 | 1019.3 |
| 20260831120049 | 70 | 0 | 0.0 | 0.0 | 0.00 | 0.10 | 0.01 | 95 | 1019.3 |
| 20260831115528 | 70 | 0 | 0.0 | 0.0 | 0.00 | 0.10 | 0.01 | 95 | 1019.3 |
| 20260831115028 | 70 | 0 | 0.0 | 0.0 | 0.00 | 0.10 | 0.01 | 95 | 1019.2 |
| 20260831114549 | 70 | 0 | 0.0 | 0.0 | 0.01 | 0.10 | 0.01 | 95 | 1019.3 |
| 20260831114025 | 70 | 0 | 0.0 | 0.0 | 0.01 | 0.10 | 0.01 | 95 | 1019.3 |
| 20260831113524 | 70 | 0 | 0.0 | 0.0 | 0.01 | 0.10 | 0.01 | 95 | 1019.2 |
| 20260831113049 | 70 | 0 | 0.0 | 0.0 | 0.01 | 0.10 | 0.01 | 95 | 1019.1 |
| 20260831112526 | 70 | 0 | 0.0 | 1.0 | 0.01 | 0.10 | 0.01 | 95 | 1019.1 |
| 20260831112024 | 70 | 0 | 0.0 | 1.0 | 0.01 | 0.10 | 0.01 | 95 | 1018.9 |
| 20260831111543 | 70 | 0 | 0.0 | 1.0 | 0.01 | 0.10 | 0.01 | 95 | 1018.8 |
| 20260831111028 | 70 | 0 | 0.0 | 1.0 | 0.01 | 0.10 | 0.01 | 95 | 1018.8 |
| 20260831110529 | 70 | 0 | 0.0 | 1.0 | 0.01 | 0.10 | 0.01 | 95 | 1018.9 |
| 20260831110052 | 70 | 0 | 0.0 | 1.0 | 0.01 | 0.10 | 0.01 | 95 | 1018.8 |
| 20260831105528 | 70 | 47 | 0.0 | 1.0 | 0.01 | 0.10 | 0.01 | 95 | 1018.8 |
| 20260831105026 | 70 | 0 | 0.0 | 2.0 | 0.01 | 0.10 | 0.01 | 96 | 1018.8 |
| 20260831104549 | 70 | 0 | 0.0 | 2.0 | 0.00 | 0.09 | 0.00 | 95 | 1018.7 |
| 20260831104025 | 70 | 48 | 0.0 | 2.0 | 0.00 | 0.09 | 0.00 | 96 | 1018.6 |
| 20260831103526 | 70 | 0 | 0.0 | 0.0 | 0.00 | 0.09 | 0.00 | 95 | 1018.6 |
| 20260831103052 | 70 | 0 | 0.0 | 0.0 | 0.00 | 0.09 | 0.00 | 95 | 1018.7 |
| 20260831102526 | 70 | 0 | 0.0 | 1.0 | 0.00 | 0.09 | 0.00 | 96 | 1018.7 |
| 20260831102026 | 70 | 0 | 0.0 | 1.0 | 0.00 | 0.09 | 0.00 | 96 | 1018.7 |
| 20260831101557 | 70 | 0 | 0.0 | 1.0 | 0.00 | 0.09 | 0.00 | 96 | 1018.5 |
| 20260831101024 | 70 | 0 | 0.0 | 0.0 | 0.00 | 0.09 | 0.00 | 95 | 1018.5 |
| 20260831100525 | 70 | 0 | 0.0 | 1.0 | 0.00 | 0.09 | 0.00 | 95 | 1018.3 |
| 20260831100104 | 70 | 0 | 0.0 | 1.0 | 0.00 | 0.09 | 0.00 | 96 | 1018.3 |
| 20260831095525 | 70 | 0 | 0.0 | 0.0 | 0.00 | 0.09 | 0.00 | 95 | 1018.2 |
| 20260831095029 | 70 | 0 | 0.0 | 0.0 | 0.00 | 0.09 | 0.00 | 95 | 1018.2 |
| 20260831094552 | 70 | 0 | 0.0 | 0.0 | 0.00 | 0.09 | 0.00 | 95 | 1018.1 |
| 20260831094027 | 70 | 0 | 0.0 | 0.0 | 0.00 | 0.09 | 0.00 | 95 | 1018.0 |
| 20260831093527 | 70 | 0 | 0.0 | 2.0 | 0.00 | 0.09 | 0.00 | 95 | 1018.0 |
| 20260831093050 | 70 | 0 | 0.0 | 2.0 | 0.00 | 0.09 | 0.00 | 96 | 1018.1 |
| 20260831092527 | 70 | 42 | 1.0 | 2.0 | 0.00 | 0.09 | 0.00 | 96 | 1018.1 |
| 20260831092029 | 69 | 0 | 0.0 | 0.0 | 0.00 | 0.09 | 0.00 | 95 | 1018.0 |
| 20260831091553 | 69 | 0 | 0.0 | 0.0 | 0.00 | 0.09 | 0.00 | 95 | 1018.0 |
| 20260831091029 | 69 | 0 | 0.0 | 0.0 | 0.00 | 0.09 | 0.00 | 95 | 1017.8 |
| 20260831090526 | 69 | 0 | 0.0 | 0.0 | 0.00 | 0.09 | 0.00 | 95 | 1017.8 |
| 20260831090050 | 69 | 0 | 0.0 | 0.0 | 0.00 | 0.09 | 0.00 | 95 | 1017.7 |
| 20260831085527 | 70 | 0 | 0.0 | 0.0 | 0.00 | 0.09 | 0.00 | 95 | 1017.8 |
| 20260831085028 | 70 | 0 | 0.0 | 0.0 | 0.00 | 0.09 | 0.00 | 95 | 1017.8 |
| 20260831084549 | 70 | 0 | 0.0 | 0.0 | 0.00 | 0.09 | 0.00 | 95 | 1017.8 |
| 20260831084024 | 70 | 0 | 0.0 | 0.0 | 0.00 | 0.09 | 0.00 | 95 | 1017.8 |
| 20260831083524 | 70 | 0 | 0.0 | 0.0 | 0.00 | 0.09 | 0.00 | 95 | 1017.7 |
| 20260831083056 | 70 | 0 | 0.0 | 0.0 | 0.00 | 0.09 | 0.00 | 95 | 1017.5 |
| 20260831082525 | 70 | 0 | 0.0 | 0.0 | 0.00 | 0.09 | 0.00 | 95 | 1017.7 |
| 20260831082025 | 70 | 0 | 0.0 | 0.0 | 0.00 | 0.09 | 0.00 | 95 | 1017.7 |
| 20260831081558 | 70 | 0 | 0.0 | 0.0 | 0.00 | 0.09 | 0.00 | 95 | 1017.6 |
| 20260831081028 | 70 | 0 | 0.0 | 0.0 | 0.00 | 0.09 | 0.00 | 95 | 1017.8 |
| 20260831080529 | 70 | 0 | 0.0 | 0.0 | 0.00 | 0.09 | 0.00 | 95 | 1017.7 |
| 20260831080047 | 70 | 0 | 0.0 | 0.0 | 0.00 | 0.09 | 0.00 | 95 | 1017.8 |
| 20260831075524 | 70 | 0 | 0.0 | 0.0 | 0.00 | 0.09 | 0.00 | 95 | 1017.8 |
| 20260831075026 | 70 | 0 | 0.0 | 0.0 | 0.00 | 0.09 | 0.00 | 95 | 1017.8 |
| 20260831074547 | 70 | 0 | 0.0 | 0.0 | 0.00 | 0.09 | 0.00 | 95 | 1017.8 |
| 20260831074029 | 71 | 0 | 0.0 | 0.0 | 0.00 | 0.09 | 0.00 | 95 | 1017.7 |
| 20260831073525 | 71 | 0 | 0.0 | 0.0 | 0.00 | 0.09 | 0.00 | 95 | 1017.7 |
| 20260831073047 | 71 | 0 | 0.0 | 0.0 | 0.00 | 0.09 | 0.00 | 95 | 1017.8 |
| 20260831072526 | 71 | 0 | 0.0 | 1.0 | 0.00 | 0.09 | 0.00 | 95 | 1017.7 |
| 20260831072025 | 71 | 0 | 0.0 | 1.0 | 0.00 | 0.09 | 0.00 | 95 | 1017.7 |
| 20260831071611 | 71 | 0 | 0.0 | 0.0 | 0.00 | 0.09 | 0.00 | 94 | 1017.8 |
| 20260831071025 | 71 | 0 | 0.0 | 1.0 | 0.00 | 0.09 | 0.00 | 94 | 1017.8 |
| 20260831070528 | 71 | 0 | 0.0 | 1.0 | 0.00 | 0.09 | 0.00 | 94 | 1017.7 |
| 20260831070052 | 71 | 0 | 0.0 | 0.0 | 0.00 | 0.09 | 0.00 | 95 | 1017.9 |
| 20260831065526 | 71 | 0 | 0.0 | 0.0 | 0.00 | 0.09 | 0.00 | 94 | 1017.9 |
| 20260831065032 | 71 | 0 | 0.0 | 0.0 | 0.00 | 0.09 | 0.00 | 94 | 1018.0 |
| 20260831064547 | 71 | 0 | 0.0 | 0.0 | 0.00 | 0.09 | 0.00 | 94 | 1017.8 |
| 20260831064031 | 71 | 0 | 0.0 | 0.0 | 0.00 | 0.09 | 0.00 | 94 | 1017.9 |
| 20260831063524 | 71 | 0 | 0.0 | 0.0 | 0.00 | 0.09 | 0.00 | 94 | 1017.8 |
| 20260831063047 | 71 | 0 | 0.0 | 0.0 | 0.00 | 0.09 | 0.00 | 94 | 1017.8 |
| 20260831062531 | 71 | 0 | 0.0 | 1.0 | 0.00 | 0.09 | 0.00 | 94 | 1017.8 |
| 20260831062030 | 71 | 0 | 0.0 | 1.0 | 0.00 | 0.09 | 0.00 | 94 | 1017.8 |
| 20260831061558 | 72 | 234 | 0.0 | 1.0 | 0.00 | 0.09 | 0.00 | 94 | 1017.9 |
| 20260831061028 | 72 | 0 | 0.0 | 2.0 | 0.00 | 0.09 | 0.00 | 94 | 1018.1 |
| 20260831060531 | 72 | 0 | 0.0 | 2.0 | 0.00 | 0.09 | 0.00 | 94 | 1018.3 |
| 20260831060100 | 72 | 152 | 0.0 | 1.0 | 0.00 | 0.09 | 0.00 | 94 | 1018.3 |
| 20260831055535 | 72 | 0 | 0.0 | 1.0 | 0.00 | 0.09 | 0.00 | 94 | 1018.3 |
| 20260831055024 | 72 | 240 | 0.0 | 1.0 | 0.00 | 0.09 | 0.00 | 94 | 1018.4 |
| 20260831054547 | 72 | 325 | 0.0 | 1.0 | 0.00 | 0.09 | 0.00 | 94 | 1018.4 |
| 20260831054027 | 72 | 303 | 0.0 | 1.0 | 0.00 | 0.09 | 0.00 | 94 | 1018.4 |
| 20260831053525 | 72 | 0 | 0.0 | 1.0 | 0.00 | 0.09 | 0.00 | 94 | 1018.4 |
| 20260831053051 | 72 | 236 | 0.0 | 1.0 | 0.00 | 0.09 | 0.00 | 94 | 1018.5 |
| 20260831052524 | 72 | 235 | 0.0 | 1.0 | 0.00 | 0.09 | 0.00 | 94 | 1018.4 |
| 20260831052024 | 72 | 303 | 0.0 | 2.0 | 0.00 | 0.09 | 0.00 | 94 | 1018.2 |
| 20260831051602 | 73 | 0 | 0.0 | 2.0 | 0.00 | 0.09 | 0.00 | 94 | 1018.2 |
| 20260831051024 | 73 | 333 | 1.0 | 2.0 | 0.00 | 0.09 | 0.00 | 94 | 1018.2 |
| 20260831050525 | 73 | 321 | 0.0 | 2.0 | 0.00 | 0.09 | 0.00 | 94 | 1018.1 |
| 20260831050049 | 73 | 0 | 0.0 | 2.0 | 0.00 | 0.09 | 0.00 | 94 | 1018.0 |
| 20260831045526 | 73 | 338 | 0.0 | 2.0 | 0.00 | 0.09 | 0.00 | 94 | 1018.0 |
| 20260831045024 | 73 | 339 | 0.0 | 2.0 | 0.01 | 0.09 | 0.00 | 94 | 1018.0 |
| 20260831044549 | 73 | 335 | 1.0 | 2.0 | 0.02 | 0.09 | 0.00 | 94 | 1018.0 |
| 20260831044024 | 73 | 310 | 0.0 | 1.0 | 0.02 | 0.09 | 0.00 | 94 | 1017.9 |
| 20260831043527 | 73 | 0 | 0.0 | 1.0 | 0.02 | 0.09 | 0.00 | 93 | 1018.0 |
| 20260831043047 | 73 | 294 | 0.0 | 1.0 | 0.02 | 0.09 | 0.00 | 93 | 1018.0 |
| 20260831042524 | 73 | 0 | 0.0 | 9.0 | 0.03 | 0.09 | 0.00 | 93 | 1018.0 |
| 20260831042025 | 73 | 207 | 0.0 | 9.0 | 0.03 | 0.09 | 0.00 | 93 | 1018.0 |
| 20260831041547 | 73 | 252 | 1.0 | 9.0 | 0.03 | 0.09 | 0.00 | 93 | 1018.2 |
| 20260831041030 | 73 | 244 | 0.0 | 5.0 | 0.09 | 0.09 | 0.00 | 93 | 1018.3 |
| 20260831040528 | 73 | 269 | 2.0 | 5.0 | 0.09 | 0.09 | 0.00 | 93 | 1018.3 |
| 20260831040047 | 74 | 283 | 1.0 | 5.0 | 0.09 | 0.09 | 0.00 | 93 | 1018.2 |
| 20260831035526 | 74 | 257 | 0.0 | 1.0 | 0.09 | 0.09 | 0.09 | 93 | 1018.2 |
| 20260831035025 | 74 | 0 | 0.0 | 1.0 | 0.08 | 0.08 | 0.08 | 93 | 1018.5 |
| 20260831034547 | 74 | 254 | 0.0 | 1.0 | 0.07 | 0.07 | 0.07 | 93 | 1018.2 |
| 20260831034028 | 74 | 0 | 0.0 | 1.0 | 0.07 | 0.07 | 0.07 | 92 | 1018.2 |
| 20260831033528 | 74 | 0 | 0.0 | 1.0 | 0.07 | 0.07 | 0.07 | 92 | 1018.2 |
| 20260831033053 | 74 | 0 | 0.0 | 1.0 | 0.07 | 0.07 | 0.07 | 92 | 1018.1 |
| 20260831032525 | 74 | 145 | 0.0 | 1.0 | 0.06 | 0.06 | 0.06 | 92 | 1018.1 |
| 20260831032030 | 75 | 0 | 0.0 | 1.0 | 0.06 | 0.06 | 0.06 | 91 | 1018.1 |
| 20260831031541 | 75 | 81 | 0.0 | 1.0 | 0.05 | 0.05 | 0.05 | 90 | 1018.1 |
| 20260831031032 | 75 | 0 | 0.0 | 0.0 | 0.00 | 0.00 | 0.00 | 89 | 1018.1 |
| 20260831030527 | 75 | 0 | 0.0 | 2.0 | 0.00 | 0.00 | 0.00 | 89 | 1018.0 |
| 20260831030050 | 75 | 0 | 0.0 | 2.0 | 0.00 | 0.00 | 0.00 | 89 | 1018.0 |
| 20260831025524 | 75 | 224 | 0.0 | 2.0 | 0.00 | 0.00 | 0.00 | 88 | 1017.9 |
| 20260831025025 | 75 | 0 | 0.0 | 2.0 | 0.00 | 0.00 | 0.00 | 88 | 1017.9 |
| 20260831024552 | 75 | 177 | 0.0 | 3.0 | 0.00 | 0.00 | 0.00 | 88 | 1018.1 |
| 20260831024028 | 75 | 181 | 1.0 | 3.0 | 0.00 | 0.00 | 0.00 | 88 | 1018.0 |
| 20260831023524 | 75 | 0 | 0.0 | 2.0 | 0.00 | 0.00 | 0.00 | 88 | 1018.0 |
| 20260831023054 | 75 | 0 | 0.0 | 2.0 | 0.00 | 0.00 | 0.00 | 87 | 1018.2 |
| 20260831022528 | 76 | 219 | 0.0 | 3.0 | 0.00 | 0.00 | 0.00 | 87 | 1018.1 |
| 20260831022027 | 76 | 0 | 0.0 | 3.0 | 0.00 | 0.00 | 0.00 | 87 | 1018.0 |
| 20260831021554 | 76 | 0 | 0.0 | 2.0 | 0.00 | 0.00 | 0.00 | 87 | 1018.0 |
| 20260831021031 | 76 | 224 | 0.0 | 3.0 | 0.00 | 0.00 | 0.00 | 87 | 1018.2 |
| 20260831020529 | 76 | 208 | 1.0 | 3.0 | 0.00 | 0.00 | 0.00 | 86 | 1018.2 |
| 20260831020108 | 76 | 236 | 0.0 | 3.0 | 0.00 | 0.00 | 0.00 | 86 | 1018.2 |
| 20260831015531 | 76 | 261 | 0.0 | 3.0 | 0.00 | 0.00 | 0.00 | 86 | 1018.2 |
| 20260831015028 | 76 | 0 | 1.0 | 4.0 | 0.00 | 0.00 | 0.00 | 85 | 1018.2 |
| 20260831014557 | 76 | 173 | 1.0 | 4.0 | 0.00 | 0.00 | 0.00 | 85 | 1018.3 |
| 20260831014028 | 77 | 217 | 1.0 | 4.0 | 0.00 | 0.00 | 0.00 | 85 | 1018.3 |
| 20260831013529 | 77 | 0 | 0.0 | 2.0 | 0.00 | 0.00 | 0.00 | 85 | 1018.3 |
| 20260831013056 | 77 | 226 | 0.0 | 2.0 | 0.00 | 0.00 | 0.00 | 84 | 1018.4 |
| 20260831012529 | 77 | 0 | 0.0 | 2.0 | 0.00 | 0.00 | 0.00 | 84 | 1018.4 |
| 20260831012028 | 77 | 257 | 0.0 | 3.0 | 0.00 | 0.00 | 0.00 | 83 | 1018.3 |
| 20260831011602 | 77 | 0 | 0.0 | 3.0 | 0.00 | 0.00 | 0.00 | 83 | 1018.2 |
| 20260831011028 | 77 | 171 | 1.0 | 3.0 | 0.00 | 0.00 | 0.00 | 83 | 1018.3 |
| 20260831010530 | 77 | 215 | 0.0 | 3.0 | 0.00 | 0.00 | 0.00 | 83 | 1018.3 |
| 20260831010049 | 77 | 225 | 1.0 | 3.0 | 0.00 | 0.00 | 0.00 | 82 | 1018.3 |
| 20260831005529 | 77 | 175 | 0.0 | 4.0 | 0.00 | 0.00 | 0.00 | 82 | 1018.2 |
| 20260831005030 | 77 | 252 | 1.0 | 5.0 | 0.00 | 0.00 | 0.00 | 82 | 1018.1 |
| 20260831004550 | 78 | 0 | 1.0 | 5.0 | 0.00 | 0.00 | 0.00 | 82 | 1018.1 |
| 20260831004030 | 78 | 242 | 1.0 | 3.0 | 0.00 | 0.00 | 0.00 | 81 | 1018.0 |
| 20260831003529 | 78 | 242 | 1.0 | 3.0 | 0.00 | 0.00 | 0.00 | 81 | 1018.0 |
| 20260831003056 | 78 | 239 | 0.0 | 2.0 | 0.00 | 0.00 | 0.00 | 81 | 1018.0 |
| 20260831002528 | 78 | 0 | 1.0 | 3.0 | 0.00 | 0.00 | 0.00 | 81 | 1018.0 |
| 20260831002031 | 78 | 227 | 0.0 | 3.0 | 0.00 | 0.00 | 0.00 | 80 | 1017.9 |
| 20260831001554 | 78 | 0 | 0.0 | 3.0 | 0.00 | 0.00 | 0.00 | 80 | 1017.9 |
| 20260831001029 | 78 | 260 | 0.0 | 3.0 | 0.00 | 0.00 | 0.00 | 79 | 1017.8 |
| 20260831000529 | 78 | 212 | 0.0 | 3.0 | 0.00 | 0.00 | 0.00 | 79 | 1017.8 |
| 20260831000047 | 79 | 153 | 0.0 | 2.0 | 0.00 | 0.00 | 0.00 | 78 | 1017.9 |
| 20260830235529 | 79 | 223 | 0.0 | 2.0 | 0.00 | 0.00 | 0.00 | 78 | 1017.8 |
| 20260830235028 | 79 | 253 | 0.0 | 1.0 | 0.00 | 0.00 | 0.00 | 78 | 1017.8 |
| 20260830234548 | 79 | 0 | 0.0 | 1.0 | 0.00 | 0.00 | 0.00 | 77 | 1017.8 |
| 20260830234028 | 79 | 0 | 0.0 | 1.0 | 0.00 | 0.00 | 0.00 | 76 | 1017.8 |
| 20260830233530 | 80 | 0 | 0.0 | 2.0 | 0.00 | 0.00 | 0.00 | 75 | 1017.8 |
| 20260830233047 | 80 | 0 | 0.0 | 3.0 | 0.00 | 0.00 | 0.00 | 74 | 1017.7 |
| 20260830232530 | 80 | 0 | 0.0 | 3.0 | 0.00 | 0.00 | 0.00 | 74 | 1017.9 |
| 20260830232030 | 80 | 161 | 0.0 | 3.0 | 0.00 | 0.00 | 0.00 | 74 | 1017.9 |
| 20260830231547 | 80 | 0 | 0.0 | 3.0 | 0.00 | 0.00 | 0.00 | 74 | 1017.9 |
| 20260830231029 | 80 | 0 | 0.0 | 1.0 | 0.00 | 0.00 | 0.00 | 74 | 1017.8 |
| 20260830230528 | 81 | 0 | 0.0 | 1.0 | 0.00 | 0.00 | 0.00 | 73 | 1017.9 |
| 20260830230046 | 81 | 0 | 0.0 | 3.0 | 0.00 | 0.00 | 0.00 | 72 | 1017.9 |
| 20260830225527 | 81 | 251 | 0.0 | 3.0 | 0.00 | 0.00 | 0.00 | 71 | 1017.8 |
| 20260830225030 | 81 | 248 | 0.0 | 2.0 | 0.00 | 0.00 | 0.00 | 71 | 1017.8 |
| 20260830224553 | 81 | 253 | 0.0 | 3.0 | 0.00 | 0.00 | 0.00 | 71 | 1017.8 |
| 20260830224028 | 82 | 0 | 0.0 | 3.0 | 0.00 | 0.00 | 0.00 | 70 | 1017.7 |
| 20260830223525 | 82 | 271 | 1.0 | 5.0 | 0.00 | 0.00 | 0.00 | 69 | 1017.8 |
| 20260830223052 | 82 | 233 | 0.0 | 5.0 | 0.00 | 0.00 | 0.00 | 69 | 1017.7 |
| 20260830222523 | 82 | 259 | 0.0 | 3.0 | 0.00 | 0.00 | 0.00 | 69 | 1017.7 |
| 20260830222024 | 82 | 277 | 0.0 | 3.0 | 0.00 | 0.00 | 0.00 | 69 | 1017.8 |
| 20260830221549 | 82 | 269 | 1.0 | 3.0 | 0.00 | 0.00 | 0.00 | 68 | 1017.8 |
| 20260830221026 | 82 | 0 | 1.0 | 4.0 | 0.00 | 0.00 | 0.00 | 68 | 1017.7 |
| 20260830220525 | 82 | 0 | 2.0 | 4.0 | 0.00 | 0.00 | 0.00 | 67 | 1017.6 |
| 20260830215525 | 83 | 300 | 1.0 | 5.0 | 0.00 | 0.00 | 0.00 | 67 | 1017.6 |
| 20260830215025 | 83 | 257 | 1.0 | 5.0 | 0.00 | 0.00 | 0.00 | 66 | 1017.5 |
| 20260830214550 | 83 | 321 | 1.0 | 4.0 | 0.00 | 0.00 | 0.00 | 67 | 1017.6 |
| 20260830214028 | 83 | 277 | 1.0 | 7.0 | 0.00 | 0.00 | 0.00 | 67 | 1017.6 |
| 20260830213527 | 82 | 0 | 2.0 | 8.0 | 0.00 | 0.00 | 0.00 | 68 | 1017.6 |
| 20260830213052 | 82 | 315 | 1.0 | 8.0 | 0.00 | 0.00 | 0.00 | 68 | 1017.8 |